マクノート彗星

284P/McNaught (2021)

English version
Home page
Updated on April 23, 2020

---------------------------------------------------------------------

・ プロフィール

・ 軌道要素

Epoch 2021 Sept. 23.0 TT = JDT 2459480.5
T 2021 Sept. 12.71290 TT                                Rudenko
q   2.2957376            (2000.0)            P               Q
n   0.13965482     Peri.  202.44843     +0.96846231     +0.21833095
a   3.6793020      Node   144.26291     -0.18574121     +0.95378461
e   0.3760399      Incl.   11.86135     -0.16607515     +0.20646188
P   7.06
From 1741 observations 2006 Apr. 25-2015 Feb. 12, mean residual 0".6.

・ 星図

・ 光度変化

        m1 = 7.0 + 5 logΔ + 20.0 log r

---------------------------------------------------------------------

軌道要素はM.P.E.C. 2020-H67に掲載されたものです。
星図はステラナビゲータ Ver.10 (アストロアーツ) で作成したものです。
光度グラフはComet for Windowsで作成したものです。

---------------------------------------------------------------------

Copyright(C) Seiichi Yoshida (comet@aerith.net). All rights reserved.